Location: Austin
(30.3000°N, 97.7500°W)
Time: 03:40:58
(UTC-05:00)

Daily predictions for brighter satellites

Satellite Brightness Start Highest point End
(mag) Time Altitude Azimuth Time Altitude Azimuth Time Altitude Azimuth
CZ-4C R/B 4.3 00:13:14 10° NNW 00:17:20 31° NNE 00:17:20 31° NNE
ATLAS 2AS CENTAUR R/B 4.4 02:04:04 32° N 02:04:04 32° N 02:08:41 10° NNE
USA 267 4.2 03:34:18 10° ESE 03:40:23 43° NE 03:46:28 10° NNW
Lacrosse 5 rocket 4.0 03:46:06 21° NE 03:46:06 21° NE 03:47:44 10° NE
ADEOS Rocket 3.4 03:44:19 10° NNE 03:49:31 63° NE 03:49:31 63° NE
SL-16 R/B 2.7 04:05:36 63° N 04:05:36 63° N 04:10:43 10° NNW
COSMOS 2455 3.2 04:03:56 10° NNW 04:09:54 63° ENE 04:10:40 57° E
Cosmos 1821 Rocket 4.0 04:05:33 10° N 04:11:16 75° NE 04:11:16 75° NE
NOSS 3-2 (A) 3.9 04:05:14 10° NNW 04:12:24 70° W 04:12:24 70° W
Resurs 1-4 Rocket 3.1 04:11:05 10° N 04:14:22 37° NNW 04:14:22 37° NNW
Cosmos 2239 Rocket 4.4 04:16:30 10° N 04:22:06 73° NW 04:22:06 73° NW
CZ-2D R/B 3.1 04:18:12 10° N 04:21:34 36° NNW 04:21:34 36° NNW
Cosmos 2082 Rocket 4.0 04:22:01 19° SE 04:24:31 25° ESE 04:29:04 10° NE
COSMOS 2406 4.3 04:28:48 32° NW 04:28:48 32° NW 04:32:46 10° N
Cosmos 1535 Rocket 4.3 04:23:00 10° N 04:28:57 75° WNW 04:28:57 75° WNW
Okean O Rocket 3.8 04:28:16 10° NE 04:31:43 22° E 04:33:37 17° SE
Cosmos 1605 Rocket 4.4 04:26:07 10° N 04:32:12 59° E 04:36:12 22° SSE
Cosmos 1934 Rocket 3.9 04:29:16 10° N 04:35:35 85° W 04:36:50 60° S
Cosmos 1707 3.8 04:39:05 44° ENE 04:39:05 44° ENE 04:42:09 10° NNE
Cosmos 2056 Rocket 3.7 04:33:17 10° N 04:38:35 68° ENE 04:40:59 32° SSE
MOS 1 Rocket 3.4 04:35:02 10° NNE 04:39:03 67° ENE 04:39:03 67° ENE
Cosmos 1953 4.1 04:41:32 10° NNW 04:43:09 23° NNW 04:43:09 23° NNW
VEP-3 3.7 04:40:53 36° WSW 04:46:24 61° S 04:52:19 10° ESE
Cosmos 1470 3.2 04:45:14 10° N 04:49:01 57° ENE 04:49:01 57° ENE
Intelsat 5-3 Rocket 3.7 05:04:15 24° SE 05:04:15 24° SE 05:05:44 10° ESE
Cosmos 1378 3.1 05:04:50 73° SE 05:05:04 77° E 05:08:48 10° N
ARIANE 5 R/B 4.3 05:02:36 10° NNW 05:05:17 18° NW 05:05:17 18° NW
Meteor 1-24 Rocket 4.4 05:02:22 11° SSE 05:07:15 50° E 05:12:36 10° NNE
Delta 2 Rocket 4.2 05:07:06 31° NNW 05:07:24 31° N 05:10:26 10° ENE
Cosmos 1452 Rocket 4.2 05:08:33 10° N 05:13:42 56° ENE 05:18:50 10° SSE
IRS-1C Rocket 4.5 05:08:54 10° NNE 05:14:07 62° ESE 05:18:41 13° S
COSMOS 2487 2.9 05:14:53 49° NW 05:14:53 49° NW 05:17:56 10° N
MOZ.5/SAFIR/RUBIN 5/SL-8 4.2 05:17:42 39° W 05:17:42 39° W 05:21:46 10° NNW
Cosmos-2242 3.0 05:14:29 10° NNW 05:18:48 60° W 05:20:11 39° SSW
Cosmos 468 4.4 05:17:26 36° SSW 05:19:35 72° WNW 05:24:48 10° NNE
PSLV R/B 3.8 05:15:38 10° N 05:19:43 70° WNW 05:20:54 44° SW
Lacrosse 5 rocket 3.4 05:21:48 17° WNW 05:22:43 18° NW 05:25:59 10° N
PSLV R/B 3.8 05:18:50 10° NNE 05:23:11 70° E 05:26:27 17° S
USA 267 3.5 05:17:09 10° SSE 05:23:16 43° SW 05:29:25 10° NW
ADEOS II 2.0 05:18:54 10° NNE 05:24:10 88° ESE 05:28:24 16° SSW
Cosmos 921 Rocket 3.6 05:24:27 10° NNW 05:28:33 35° W 05:28:45 35° WSW
CZ-4B R/B 3.0 05:25:11 10° N 05:29:31 70° WNW 05:32:06 25° SSW
Cosmos 1727 Rocket 4.5 05:28:13 28° WSW 05:30:34 38° W 05:36:16 10° NNW
Cosmos 1048 Rocket 3.9 05:27:48 21° SSW 05:31:16 84° WNW 05:36:24 10° NNE
Cosmos 1733 4.0 05:28:38 10° NNW 05:31:35 31° WNW 05:31:35 31° WNW
CZ-4B DEB 4.1 05:30:28 10° N 05:35:58 82° WNW 05:41:22 10° SSW
CENTAUR R/B 3.1 05:28:32 10° NNW 05:36:41 76° WSW 05:45:06 10° SSE
GPS 2-05 Rocket1 2.8 05:36:30 39° W 05:37:40 76° NNW 05:41:06 10° ENE
Okean-O 4.2 05:37:19 10° NNE 05:41:23 35° E 05:45:25 10° SSE
Cosmos 1269 Rocket 4.0 05:37:54 19° SSW 05:41:43 67° WNW 05:46:58 10° N
EO 1 Del DPAF 3.9 05:38:00 10° SSE 05:41:47 58° ENE 05:45:35 10° N
DNEPR-1 R/B 3.9 05:38:55 10° NNW 05:43:10 69° ENE 05:47:54 10° SE
Meteor 2-5 Rocket 4.3 05:40:09 22° SW 05:43:13 39° WNW 05:48:34 10° N
Cosmos 1697 Rocket 4.4 05:38:46 10° N 05:43:55 36° ENE 05:49:01 10° SE
IRAS Rocket 4.3 05:39:54 10° NNE 05:45:34 82° ESE 05:51:12 10° SSW
Cosmos 2278 3.7 05:40:10 10° NNW 05:45:55 88° ENE 05:51:37 10° SSE
CZ-3 R/B 3.4 05:31:38 16° SW 05:46:20 40° S 05:52:25 10° E
Cosmos 2016 Rocket 4.4 05:42:39 10° N 05:48:53 68° E 05:55:10 10° SSE
Delta 2 Rocket 4.4 05:45:29 20° SW 05:49:27 48° SSE 05:55:50 10° E
Okean 3 Rocket 3.6 05:46:56 10° S 05:51:18 81° E 05:55:42 10° N
Cosmos 2369 3.7 05:47:17 10° NNW 05:53:03 82° WSW 05:58:45 10° SSE
Cosmos 389 Rocket 4.0 05:51:16 10° NW 05:53:44 19° W 05:53:44 19° W
COSMOS 2455 4.5 05:52:04 10° WNW 05:53:34 13° W 05:53:34 13° W
DELTA 2 R/B(2) 3.8 05:55:13 30° NW 05:55:30 33° NNW 05:57:14 10° NE
Cosmos 839 Rocket 4.4 05:50:54 10° NW 05:57:26 60° WSW 06:05:26 10° S
BREEZE-M DEB 3.8 05:53:31 10° SSW 06:00:13 45° SE 06:02:47 10° ENE
Cosmos 1802 Rocket 4.0 05:55:08 10° N 06:01:33 78° W 06:07:54 10° S
Cosmos 1674 3.5 06:01:21 10° S 06:05:01 53° E 06:08:42 10° NNE
Okean O Rocket 2.8 06:04:23 10° NNW 06:07:56 24° WNW 06:11:04 12° WSW
Cosmos 2082 Rocket 3.0 06:03:54 13° SW 06:08:21 34° WNW 06:13:29 10° N
Feng Yun 1-1 Rocket 4.3 06:04:24 10° NNE 06:09:52 79° ESE 06:15:15 10° S
Meteor 2-1 Rocket 4.2 06:04:38 10° NNW 06:10:19 75° W 06:16:04 10° S
Cosmos 1833 Rocket 3.4 06:06:58 12° SW 06:11:37 34° WNW 06:16:41 10° N
Cosmos 1459 Rocket 4.2 06:07:33 10° NNW 06:13:28 49° W 06:19:27 10° SSW
Timation 2 Rocket 4.3 06:07:51 10° SW 06:14:26 54° WNW 06:20:49 10° N
MTI 4.2 06:11:22 10° S 06:14:26 40° W 06:17:31 10° NNW
Cosmos 1980 Rocket 3.8 06:11:50 10° N 06:17:12 41° ENE 06:22:29 10° SE
Cosmos 1766 Rocket 3.9 06:14:37 10° S 06:19:03 75° E 06:23:32 10° N
Cosmos 1725 Rocket 4.2 06:13:04 10° N 06:19:21 83° E 06:25:40 10° S
Meteor 1-31 Rocket 2.9 06:15:34 10° N 06:19:25 59° WNW 06:23:16 10° SSW
Tiangong 1 3.4 06:17:33 10° NNW 06:19:45 20° NNE 06:21:56 10° ENE
Cosmos 1184 Rocket 4.1 06:16:39 10° SSE 06:19:52 44° E 06:23:05 10° NNE
CZ-4B R/B 4.0 06:15:37 10° N 06:20:11 29° WNW 06:24:42 10° SW
Meteor PRIRODA 4.4 06:20:42 10° N 06:24:03 33° WNW 06:27:22 10° SW
Cosmos 1656 3.6 06:19:49 10° NNW 06:25:09 61° WSW 06:30:29 10° S
SL-08 R/B 4.5 06:23:41 10° NNW 06:29:43 64° W 06:35:42 10° S
